カタログに戻る

STARLINK-5123

運用中通信VLEO
NORAD 53979·PAYLOAD·🇺🇸 United States

打ち上げ Oct 5, 2022 から Vandenberg Space Force Base

Loading…

次のパス (今後24時間)

TLE

最新Source: CelesTrak SupGP

元期: Sep 14, 2026, 14:24 UTC

1 53979C 22125R   26257.60048611 -.00014800  00000+0 -47585-3 0  2576
2 53979  53.1597  85.2592 0001233  88.7758 336.6661 15.31714330    18

AllMySatでSTARLINK-5123をリアルタイム追跡

Download on the App Store